Location: *
(39.5197°S, 171.4925°W)
Time: 20:18:48
(UTC+00:00)

Daily predictions for brighter satellites

Satellite Brightness Start Highest point End
(mag) Time Altitude Azimuth Time Altitude Azimuth Time Altitude Azimuth
Atlas Centaur 2 4.0 15:12:19 40° NNE 15:12:19 40° NNE 15:18:24 10° ENE
USA 267 4.1 15:14:35 10° SE 15:18:55 44° ESE 15:18:55 44° ESE
Cosmos 2369 Rocket 4.2 15:57:17 17° SSE 15:57:17 17° SSE 15:58:34 10° SSE
Cosmos 2315 Rocket 4.4 15:46:48 10° N 15:52:56 60° E 15:59:12 10° SSE
USA 234 4.2 15:47:43 10° E 15:53:38 37° SSE 15:55:01 34° S
Meteor 2-17 Rocket 4.5 15:56:56 76° E 15:56:56 76° E 16:03:00 10° NNE
Envisat 4.3 15:58:03 10° NNE 16:00:43 32° NNE 16:00:43 32° NNE
Lacrosse 5 4.5 16:05:41 10° SSE 16:05:41 10° SSE 16:05:46 10° SSE
Cosmos 1833 4.1 16:34:31 46° SSW 16:36:20 87° WNW 16:42:00 10° NNE
Okean O Rocket 3.7 16:34:36 10° ENE 16:38:16 25° ESE 16:41:59 10° SSE
CZ-4B DEB 4.4 16:34:51 10° NNE 16:40:19 69° ESE 16:45:49 10° S
NOAA 12 4.2 16:37:45 10° NNE 16:43:05 80° ESE 16:47:47 14° S
CZ-2C R/B 4.1 16:39:22 10° NE 16:43:51 40° ESE 16:48:21 10° S
NOAA 6 4.0 16:39:24 10° NNE 16:44:33 84° ESE 16:48:36 17° SSW
Hubble Space Telescope 2.9 16:43:40 17° NNW 16:44:38 18° N 16:47:28 10° NE
USA 281 3.3 16:38:26 10° SSE 16:44:50 53° WSW 16:50:19 14° NW
CZ-4B R/B 4.3 16:42:04 10° NE 16:47:03 42° ESE 16:52:05 10° S
Cosmos 1048 Rocket 4.1 16:47:06 21° SSW 16:50:46 79° ESE 16:56:11 10° NNE
SL-8 R/B 3.8 16:48:55 35° NW 16:50:56 75° NE 16:55:47 10° ESE
Meteor 1-11 Rocket 3.8 16:46:42 10° S 16:52:40 85° E 16:58:39 10° N
PSLV R/B 3.6 16:50:20 10° NNE 16:54:06 88° WNW 16:55:07 47° SSW
Cosmos 1869 Rocket 3.9 16:50:13 12° S 16:54:21 65° E 16:58:41 10° NNE
FengYun 1-2 T 4.3 16:49:27 10° NNE 16:54:59 78° ESE 17:00:34 10° S
CZ-3 R/B 4.2 16:42:19 23° W 16:54:59 36° NW 17:03:46 10° NNE
AQUARIUS 4.3 16:51:12 10° NNE 16:55:42 74° ESE 17:00:00 12° S
Meteor 1-5 Rocket 4.5 16:55:02 35° SW 16:56:42 44° W 17:01:59 10° NNW
Atlas Centaur 2 4.0 16:54:55 21° WNW 16:59:38 37° NNW 17:07:00 10° NE
Cosmos 1932 4.4 16:53:53 10° NNW 17:00:11 86° WSW 17:06:38 10° SSE
CORIOLIS 4.2 16:55:19 10° NNE 17:00:46 81° ESE 17:06:19 10° SSW
USA 267 3.9 16:57:55 10° SE 17:03:51 37° SSW 17:06:17 28° WSW
SMAP 3.0 16:59:21 10° N 17:04:02 78° WNW 17:08:12 13° SSW
Radarsat Rocket 4.0 16:57:39 10° NNE 17:04:15 83° WNW 17:10:19 10° SSW
USA 276 4.1 17:07:54 19° NNW 17:07:54 19° NNW 17:09:37 10° N
IRAS Rocket 4.2 17:03:10 10° SSE 17:08:50 80° WSW 17:14:28 10° NNW
CZ-4C R/B 2.9 17:06:11 10° SSE 17:09:25 74° ENE 17:12:34 10° N
Cosmos 1939 Rocket 3.0 17:05:42 10° NNE 17:09:51 81° ESE 17:14:06 10° S
Cosmos 1933 Rocket 4.4 17:15:58 28° W 17:15:58 28° W 17:19:26 10° NNW
SL-27 R/B 3.7 17:19:24 24° WNW 17:19:24 24° WNW 17:21:30 10° NNW
Nadezhda 1 Rocket 4.2 17:14:46 10° N 17:21:10 83° E 17:27:40 10° S
Lacrosse 4 Rocket 1.5 17:19:09 10° NNW 17:23:16 78° ENE 17:27:32 10° SSE
deb Chang Zheng 4 4.4 17:19:36 10° NNW 17:23:27 30° W 17:24:58 24° WSW
COSMOS 2455 3.0 17:18:43 11° SSW 17:24:35 80° ESE 17:30:36 10° NNE
MOS 1-B 4.4 17:23:18 10° N 17:29:00 57° WNW 17:34:48 10° SSW
Meteor 1-27 Rocket 3.9 17:23:50 10° NNW 17:29:09 46° WSW 17:34:39 10° S
Cosmos 494 Rocket 4.1 17:25:54 11° SSW 17:30:58 61° WNW 17:36:09 10° N
PAYLOAD B 4.4 17:26:25 10° N 17:31:52 53° W 17:37:23 10° SSW
CZ-4 R/B 3.4 17:29:17 10° NE 17:33:02 30° ESE 17:36:45 10° S
MOS 1 Rocket 4.0 17:29:40 10° S 17:34:07 32° WSW 17:38:16 10° NW
USA 234 3.3 17:29:44 10° NE 17:36:17 74° NW 17:42:22 13° SW
Cosmos 2228 Rocket 4.0 17:33:40 10° NW 17:37:27 27° WSW 17:41:17 10° SSW
Cosmos 2369 Rocket 4.1 17:39:07 10° SW 17:39:07 10° SW 17:39:10 10° SSW
YAOGAN 1 4.4 17:34:45 10° NE 17:38:37 32° ESE 17:42:31 10° S
SWARM C 4.4 17:35:30 10° S 17:38:55 78° W 17:42:16 10° N
SWARM A 4.1 17:35:37 10° S 17:39:01 75° W 17:42:22 10° N
Cosmos 1536 3.5 17:37:45 11° SSW 17:41:19 33° W 17:45:01 10° NNW
Meteor 2-12 Rocket 4.5 17:36:47 10° SSW 17:42:53 61° W 17:48:52 10° N
Cosmos 1656 4.4 17:38:05 10° N 17:43:33 58° ENE 17:49:01 10° SSE
Cosmos 1515 3.7 17:40:47 10° NNW 17:44:32 55° W 17:48:19 10° S
Lacrosse 5 4.1 17:46:33 10° SSW 17:48:20 12° S 17:50:07 10° SSE
H-2A R/B 2.3 17:46:26 10° N 17:50:14 58° WNW 17:54:06 10° SSW
Okean-O 4.4 17:46:34 10° NE 17:50:31 32° ESE 17:54:31 10° S
Landsat 5 4.2 17:47:34 10° S 17:51:27 32° WSW 17:55:09 10° NW
COSMO-SKYMED 1 2.6 17:47:33 10° S 17:51:56 62° WSW 17:56:15 10° NNW
Cosmos 2074 Rocket 4.5 17:49:15 10° SSW 17:55:05 40° W 18:00:53 10° NNW
SME Rocket 3.7 17:50:17 10° SSE 17:55:27 65° ENE 17:59:21 10° N
Cosmos 1340 Rocket 4.4 17:57:35 10° SW 18:00:16 18° W 18:03:02 10° NW
Cosmos 1238 Rocket 4.3 17:54:27 10° S 18:01:02 82° E 18:07:37 10° N
COSMOS 2487 3.7 18:07:29 10° SW 18:10:17 23° W 18:13:02 10° NNW
ARGOS 3.4 18:06:12 10° NNE 18:11:37 78° ESE 18:17:05 10° S
Okean O Rocket 2.6 18:10:34 10° NNW 18:14:28 29° W 18:18:26 10° SW
H-2A R/B 2.1 18:10:03 10° N 18:15:06 62° W 18:20:07 10° SSW
